Weather in Nizhnyaya Salda

Russia / Sverdlovsk Oblast     58°04′29″N   60°42′09″E
temp.,
°C
wind,
m/s
gust,
m/s
humid.,
%
clouds,
%
prec.,
mm/h
press.,
hPa
HPBL,
m
5 august, thu
thu523:00+16s399297 0.4 1012187
02:00+16s279639 0.0 1009129
05:00+17sw1195100 0.2 100911
08:00+20w128563 0.0 1010175
11:00+27sse235681 0.0 1008652
14:00+26s125064 0.0 100774
17:00+28sw474878 0.0 10071208
20:00+24w26711 0.1 1007164
6 august, fri
fri623:00+17wnw3995100 1.0 1007338
02:00+15wnw3798100 0.4 1007237
05:00+14wnw3798100 0.4 1007272
08:00+16nnw3895100 0.1 1008687
11:00+18nnw3890100 0.4 1009735
14:00+17nw3788100 0.3 1010526
17:00+18nw377892 1.0 1011783
20:00+16nw2595100 1.3 1011162
7 august, sat
sat723:00+15nw259595 1.4 1012113
02:00+14nw279699 0.0 1011175
05:00+10wnw26950 0.0 1012121
08:00+13nw35800 0.0 1013291
11:00+19nw34530 0.0 10121124
14:00+22nw46432 0.0 10121903
17:00+18nw576199 0.0 1013988
20:00+16nw377096 0.0 1014797
8 august, sun
sun823:00+14nw377566 0.0 1014627
02:00+9nw38950 0.0 1015241
05:00+8wnw389837 0.0 1016200
08:00+12nw377999 0.0 1016326
11:00+17nnw3563100 0.0 1016761
14:00+22nnw455132 0.0 10151265
17:00+20ne256390 0.0 1016429
20:00+18nw117741 0.0 101719
9 august, mon
mon923:00+14nw39865 0.0 1018215
02:00+11wnw259430 0.0 1019110
05:00+10nw24989 0.0 101977
08:00+14nnw238060 0.0 1019305
11:00+20wnw235971 0.0 10181003
14:00+23nw354572 0.0 10181416
17:00+24nnw3640100 0.0 10171683
20:00+18nw2264100 0.0 101844